Simultaneous Nadir Overpasses (SNOs) Predictions

Prediction of SNOs between NOAA-19 and METOP-C Satellite Orbit:

Table of predicted SNOs for the next 14.0 days since TLE Epoch: 5/31/2025
Index Date (NOAA-19) Time (NOAA-19) Lat,Lon (NOAA-19) SZA (NOAA-19 ) Date (METOP-C) Time (METOP-C) Lat,Lon (METOP-C) SZA (METOP-C ) Distance(km) Time Diff (sec)
1 05/31/2025 03:49:26 80.31,-157.80 66.72 05/31/2025 03:48:33 80.31,-157.67 66.71 2.38 53
2 05/31/2025 04:40:26 -80.26, 10.19 113.17 05/31/2025 04:39:11 -80.26, 10.29 113.20 1.92 75
3 06/12/2025 06:21:26 80.53, 160.99 64.92 06/12/2025 06:22:34 80.54, 160.85 64.95 2.79 68
4 06/12/2025 07:12:28 -80.50, -31.25 115.00 06/12/2025 07:13:13 -80.51, -31.39 114.99 2.69 45
5 06/12/2025 08:03:21 80.50, 136.00 65.00 06/12/2025 08:03:54 80.50, 136.04 65.02 0.73 33
6 06/12/2025 08:54:23 -80.47, -56.25 114.93 06/12/2025 08:54:33 -80.47, -56.20 114.92 0.82 10
7 06/12/2025 09:45:14 80.43, 111.68 65.17 06/12/2025 09:45:13 80.44, 111.56 65.15 2.37 1
8 06/12/2025 10:36:16 -80.40, -80.58 114.76 06/12/2025 10:35:52 -80.41, -80.70 114.79 2.25 24
9 06/12/2025 11:27:09 80.40, 86.68 65.24 06/12/2025 11:26:33 80.40, 86.74 65.22 1.16 36
10 06/12/2025 12:18:11 -80.37,-105.58 114.69 06/12/2025 12:17:12 -80.37,-105.52 114.72 1.29 59



Historial Predications of SNOs between NOAA-19 and METOP-C
